Flag for Poland Weather past 2 weeks in Płock, Poland

Now
34 °F

Fog.


Feels Like: 31 °F
Forecast: 28 / 42 °F
Wind: 3 mph from Southwest

Location: Plock

Current Time: Mar 5, 2015 at 6:12:49 AM

Latest Report: Mar 5, 2015 at 5:00 AM


Visibility: 4 mi

Pressure: 30.26 "Hg

Humidity: 93%

Dew point: 32 °F

Location of PłockLocation

Historic Weather in Płock — Graph

°F

Płock temperature yesterday

Maximum temperature yesterday: 39 °F (at 11:00 AM)
Minimum temperature yesterday: 33 °F (at 1:00 AM)
Average temperature yesterday: 36 °F

Past Weeks' High & Low Weather Summary

 TemperatureHumidityPressure
High47 °F (Feb 28, 1:00 PM)98% (Feb 23, 2:00 AM)30.67 "Hg (Feb 23, 2:00 AM)
Low25 °F (Feb 18, 4:00 AM)46% (Feb 21, 3:00 PM)29.41 "Hg (Mar 2, 1:00 PM)
Average38 °F83%29.96 "Hg
* Reported Feb 18 3:00 AM — Mar 5 3:00 AM, Płock, Weather by CustomWeather, © 2015

Note: Actual official high and low records may vary slightly from our data, if they occured in-between our weather recording intervals... More about our weather records

Advertising

Płock weather history for previous 24 hours

 ConditionsComfort  
Time TempWeatherWind HumidityBarometerVisibility
3:00 AM
Thu, Mar 5
33 °FFog.2 mph93%30.24 "Hg3 mi
2:00 AM34 °FFog.3 mph90%30.24 "Hg4 mi
1:00 AM34 °FFog.3 mph90%30.22 "Hg6 mi
12:00 AM35 °FChilly.3 mph90%30.21 "Hg6 mi
11:00 PM
Wed, Mar 4
35 °FChilly.6 mph89%30.19 "Hg7 mi
9:00 PM34 °FChilly.5 mph84%30.17 "Hg7 mi
8:00 PM37 °FChilly.5 mph76%30.16 "Hg12 mi
7:00 PM36 °FChilly.1 mph82%30.15 "Hg10 mi
6:00 PM37 °FChilly.3 mph81%30.14 "Hg13 mi
5:00 PM36 °FChilly.3 mph88%30.11 "Hg10 mi
4:00 PM36 °FChilly.3 mph93%30.09 "Hg9 mi
3:00 PM35 °FLight rain. Cloudy.8 mph91%30.07 "Hg4 mi
2:00 PM37 °FDrizzle. Cloudy.9 mph89%30.03 "Hg6 mi
1:00 PM36 °FLight rain. Cloudy.7 mph90%30.00 "Hg3 mi
12:00 PM37 °FLight rain. Cloudy.9 mph86%29.97 "Hg3 mi
11:00 AM39 °FFog.10 mph71%29.94 "Hg10 mi
10:00 AM39 °FChilly.8 mph66%29.94 "Hg19 mi
9:00 AM37 °FChilly.7 mph76%29.94 "Hg19 mi
8:00 AM36 °FChilly.7 mph90%29.92 "Hg8 mi
7:00 AM35 °FChilly.5 mph90%29.90 "Hg8 mi
6:00 AM36 °FSprinkles. Overcast.7 mph81%29.89 "Hg7 mi
Weather by CustomWeather, © 2015

See weather overviewHow to use our weather pages